Location: Aschersleben
(51.7500°N, 11.4670°E)
Time: 06:01:05
(UTC+01:00)

ISS - Visible Passes

Search period start: 22 February 2019 00:00
Search period end: 04 March 2019 00:00
Orbit: 403 x 411 km, 51.6° (Epoch: 22 February)

Date Brightness Start Highest point End Pass type
(mag) Time Alt. Az. Time Alt. Az. Time Alt. Az.
23 Feb -0.9 06:35:06 10° S 06:37:05 15° SE 06:39:05 10° ESE visible
25 Feb -1.8 06:27:34 10° SSW 06:30:23 27° SSE 06:33:12 10° E visible
26 Feb -1.3 05:36:45 10° S 05:39:05 18° SE 05:41:26 10° E visible
27 Feb -1.0 04:46:53 11° SSE 04:47:50 12° SE 04:49:08 10° ESE visible
27 Feb -2.9 06:20:36 10° SW 06:23:45 45° SSE 06:26:53 10° E visible
28 Feb -2.3 05:30:22 17° SSW 05:32:21 31° SSE 05:35:18 10° E visible
01 Mar -1.8 04:41:01 22° SE 04:41:01 22° SE 04:43:35 10° E visible
01 Mar -3.6 06:13:53 10° WSW 06:17:09 68° SSE 06:20:24 10° E visible
02 Mar -3.3 05:24:17 29° SW 05:25:39 51° SSE 05:28:51 10° E visible
03 Mar -2.4 04:34:47 34° SE 04:34:47 34° SE 04:37:16 10° E visible
03 Mar -3.8 06:07:29 11° W 06:10:33 86° S 06:13:50 10° E visible
